Location: Eastlake (historical)
(39.0077°N, 122.6678°W)
Time: 09:45:01
(UTC+00:00)

Cosmos 2263 Rocket - Pass Details

Date: 25 November 2020
Orbit: 823 x 848 km, 71.0° (Epoch: 25 January)

Event Time Altitude Azimuth Distance (km) Brightness Sun altitude
Exits shadow 12:28:38 28° 176° (S) 1,532 3.5 -30.0°
Maximum altitude 12:31:31 58° 108° (ESE) 978 2.7 -29.4°
Drops below altitude 10° 12:37:05 10° 31° (NNE) 2,474 4.9 -28.4°
Sets 12:39:34 0° 27° (NNE) 3,415 5.6 -27.9°
